Showing default

ORBCOMM FM 36, 25984

Orbit data source: Space-Track

ORBCOMM FM 36, 25984 is a payload satellite owned by Orbcomm (US) in LEO that was launched on Sat, 04 Dec 1999 UTC via a PEGASUS XL/HAPS launch vehicle from the Air Force Eastern Test Range (AFETR). Payload-class satellites include a variety of spacecraft equipped with specific instruments for various scientific and technological missions. These include communications satellites like Starlink; space stations such as the ISS; scientific satellites like the Hubble; Earth observation satellites from companies like Planet Labs, Umbra, and HawkEye 360; GPS; miniature CubeSats for education and research; and military/defense satellites.

Loading next visibility...
Identifier
25984, 1999-065E
Orbit
LEO
Country
Flag of USUS / ORB
Related business
Manufacturer
OSC-Germantown
Mission
Non-operational Commercial Communications
Bus & Motor
MICROSTAR, Unknown motor
Mass
44 kg wet, 44 kg dry
Launch date (UTC)
1999-12-04 (27 years ago)
Launch vehicle
PEGASUS XL/HAPS
Launch site
Air Force Eastern Test Range (AFETR)
Object type
Payload
Rocket body
Debris
Shape & HBR
Cyl + 2 Pan, 4.2 m
Radar Cross Section
1.484 m², Medium (>0.1 m² and < 1m²)

Expand to show TLE details & history
Last TLE update: 2 days ago

TLE from 2 days ago
0 ORBCOMM FM 36
1 25984U 99065E   26171.23233994  .00000646  00000-0  25224-3 0  9993
2 25984  45.0374 145.1294 0004959 328.6317  31.4236 14.39201742387422
Epoch: 2026-06-20T05:34Z
TLE epoch observation values (Epoch: 2026-06-20T05:34:34.170Z)
Latitude
-0.00002°
Longitude
153.03708°
Altitude
758.12 km
Speed
7.478 km/s
True Right ascension
09h 40m 31s
True Declination
0° 00' 00"
Sunlit
Object was in daylight at epoch
Visualization orbit readout
Latitude
Unknown
Longitude
Unknown
Altitude
Unknown
Speed
Unknown
Apparent Right ascension
Unknown
Apparent Declination
Unknown
Sunlit
N/A
Visualization observer readout
Local Sidereal Time
23:09:10
Azimuth
Unknown
Elevation
Unknown
Doppler factor
Unknown
Orbital elements
Apogee altitude
766.219 km
Perigee altitude
759.137 km
Semi-major axis
7,140.815 km
Eccentricity
0.0005
Inclination
45.0374°
RAAN
145.1294°
Arg. of periapsis
328.6317°
True anomaly
31.45324°
Mean anomaly
31.4236°
Eccentric anomaly
31.43842°
Mean motion
3.59684 °/min
Orbital period
100.09 mins
BSTAR
0.00025224
Loading maneuver chart data...
Computing Atmospheric mass density...

Documentation

Showing up to 5 results
|